User: anonymous
Location: Unspecified
(0.0000°N, 0.0000°E)
Time: 21:25:08
(UTC+00:00)
Language:

CANX 3B (BRITE-ASRA) - Orbit

View from above orbital plane
View from above orbital plane
View from above satellite
View from above satellite

Ground track
Ground track

The orbit data is extracted from the following two-line orbital elements,

1 39091U 13009F   14114.09822781  .00000311  00000-0  12549-3 0  3480
2 39091 098.6221 308.8107 0011219 112.6411 247.5963 14.34674173 60573
Epoch (UTC): 24 April 2014 02:21:26
Eccentricity: 0.0011219
inclination: 98.6221°
perigee height: 768 km
apogee height: 784 km
right ascension of ascending node: 308.8107°
argument of perigee: 112.6411°
revolutions per day: 14.34674173
mean anomaly at epoch: 247.5963°
orbit number at epoch: 6057

The dashed part of the orbit path shows where the satellite is in the earth's shadow,  

DLR